Fayetteville, NC

6:49 AM EDT on October 01, 2016 (GMT -0400)
Fayetteville Regional-Grannis

Weather History for KFAY - February, 2012

Change the Weather History Date:

Wednesday, February 15, 2012

  Actual Average Record
Temperature  
Mean Temperature 52 °F 47 °F  
Max Temperature 66 °F 59 °F 81 °F (1918)
Min Temperature 38 °F 35 °F 12 °F (1943)
Degree Days  
Heating Degree Days 13 18  
Month to date heating degree days 274 285  
Since 1 July heating degree days 1683 2011  
Cooling Degree Days 0 0  
Month to date cooling degree days 0 0  
Year to date cooling degree days 0 2  
Moisture  
Dew Point 35 °F    
Average Humidity 59    
Maximum Humidity 92    
Minimum Humidity 26    
Precipitation  
Precipitation 0.00 in 0.11 in 1.46 in (1941)
Month to date precipitation 0.48 1.41  
Year to date precipitation 2.42 4.71  
Sea Level Pressure  
Sea Level Pressure 30.20 in    
Wind  
Wind Speed 3 mph (NE)    
Max Wind Speed 13 mph    
Max Gust Speed 17 mph    
Visibility 10 miles    
Events      
T = Trace of Precipitation, MM = Missing Value Source: NWS Daily Summary

Daily Weather History Graph

Daily Weather History Graph

Search for Another Location

Airport or City:

Trip Planner

Search our weather history database for the weather conditions in past years. The results will help you decide how hot, cold, wet, or windy it might be!

Date:

Astronomy

Feb. 15, 2012 Rise Set
Actual Time 7:02 AM EST 5:57 PM EST
Civil Twilight 6:36 AM EST 6:23 PM EST
Nautical Twilight 6:06 AM EST 6:53 PM EST
Astronomical Twilight 5:37 AM EST 7:22 PM EST
Moon 1:46 AM EST (2/15) 11:58 AM EST (2/15)
Length of Visible Light 11h 47m
Length of Day
10h 55m
Last Quarter, 39% of the Moon is Illuminated
Feb 15
Last Quarter
Feb 21
New
Feb 29
First Quarter
Mar 8
Full
Mar 14
Last Quarter

Hourly Weather History & Observations

Time (EST) Temp. Windchill Dew Point Humidity Pressure Visibility Wind Dir Wind Speed Gust Speed Precip Events Conditions
12:53 AM 50.0 °F - 39.9 °F 68% 30.08 in 10.0 mi Calm Calm - N/A   Overcast
1:53 AM 48.0 °F - 39.9 °F 74% 30.09 in 10.0 mi South 8.1 mph - N/A   Mostly Cloudy
2:53 AM 48.0 °F - 39.9 °F 74% 30.09 in 10.0 mi Calm Calm - N/A   Mostly Cloudy
3:53 AM 46.0 °F - 39.9 °F 79% 30.10 in 10.0 mi Calm Calm - N/A   Clear
4:53 AM 45.0 °F 43.5 °F 39.9 °F 82% 30.13 in 10.0 mi WNW 3.5 mph - N/A   Clear
5:53 AM 42.1 °F - 39.0 °F 89% 30.14 in 10.0 mi Calm Calm - N/A   Clear
6:53 AM 37.9 °F - 36.0 °F 93% 30.17 in 9.0 mi Calm Calm - N/A   Clear
7:53 AM 43.0 °F - 39.9 °F 89% 30.19 in 7.0 mi Calm Calm - N/A   Clear
8:53 AM 50.0 °F - 39.9 °F 68% 30.22 in 10.0 mi North 5.8 mph - N/A   Clear
9:53 AM 55.0 °F - 37.0 °F 51% 30.23 in 10.0 mi North 10.4 mph - N/A   Clear
10:53 AM 57.9 °F - 36.0 °F 44% 30.24 in 10.0 mi North 9.2 mph - N/A   Clear
11:53 AM 61.0 °F - 35.1 °F 38% 30.24 in 10.0 mi NNE 9.2 mph - N/A   Clear
12:53 PM 63.0 °F - 32.0 °F 31% 30.22 in 10.0 mi NNE 8.1 mph - N/A   Clear
1:53 PM 64.4 °F - 30.2 °F 28% 30.22 in 10.0 mi Calm Calm - N/A   Clear
2:53 PM 64.9 °F - 28.9 °F 26% 30.20 in 10.0 mi Calm Calm - N/A   Clear
3:53 PM 64.9 °F - 30.0 °F 27% 30.20 in 10.0 mi Variable 3.5 mph - N/A   Clear
4:53 PM 64.0 °F - 30.0 °F 28% 30.20 in 10.0 mi ENE 4.6 mph - N/A   Clear
5:53 PM 59.0 °F - 30.9 °F 35% 30.22 in 10.0 mi East 4.6 mph - N/A   Clear
6:53 PM 57.9 °F - 30.9 °F 36% 30.23 in 10.0 mi East 3.5 mph - N/A   Clear
7:53 PM 52.0 °F - 33.1 °F 49% 30.25 in 10.0 mi East 3.5 mph - N/A   Clear
8:53 PM 52.0 °F - 33.1 °F 49% 30.25 in 10.0 mi ESE 4.6 mph - N/A   Clear
9:53 PM 46.9 °F - 34.0 °F 61% 30.26 in 10.0 mi Calm Calm - N/A   Clear
10:53 PM 46.9 °F - 36.0 °F 66% 30.27 in 10.0 mi Calm Calm - N/A   Clear
11:53 PM 46.9 °F - 34.0 °F 61% 30.27 in 10.0 mi Calm Calm - N/A   Clear